GEFSGL_500_meanwind_156.txt.gz
Wind_Speed
8 8 8 8 8 8 8 8 8 7 7 6 6 6 6 5 6 6 7 7 8 8 9 9 9 9 9 9 9 9 10 10 11 12 13 13 14 14 15 16 18 19 20
9 9 9 9 9 9 8 8 9 9 8 8 7 7 7 7 7 8 8 8 9 9 9 9 10 10 10 11 11 11 11 12 13 13 14 15 16 17 18 19 20 21 21
9 10 10 10 10 9 9 8 9 9 9 9 9 8 9 9 9 10 10 10 11 11 11 11 11 11 12 12 13 14 14 14 15 16 17 17 18 19 20 21 21 22 23
10 10 10 10 10 9 9 9 9 9 9 10 10 10 10 11 11 11 12 12 13 13 13 13 14 14 14 15 16 16 17 17 18 19 20 20 21 22 22 23 23 25 26
11 10 10 10 10 10 10 10 10 10 11 11 11 11 12 12 12 12 13 14 14 14 15 15 16 16 17 18 19 19 20 21 22 22 23 24 24 25 26 26 27 28 29
12 11 11 12 12 11 11 11 11 11 12 12 13 13 13 13 13 14 15 15 16 16 17 18 18 19 20 21 22 23 24 25 26 26 26 27 28 29 29 30 31 32 33
13 12 12 12 12 13 13 12 12 13 13 14 15 15 14 14 15 16 17 17 18 19 19 20 21 22 23 23 24 26 27 27 28 29 30 31 32 32 33 34 34 35 36
14 14 13 13 14 14 15 15 15 15 15 16 16 16 17 17 17 18 19 19 20 21 22 23 23 24 25 27 27 28 29 30 32 33 33 34 35 36 36 37 38 39 40
15 15 15 15 15 15 16 16 17 17 17 17 18 18 19 19 20 20 21 22 22 23 24 25 26 27 28 29 30 31 32 33 35 35 36 37 38 38 39 40 41 42 43
16 17 17 17 17 17 18 18 18 19 19 20 20 20 21 22 23 23 24 24 25 26 27 28 29 30 31 32 33 34 35 36 37 37 38 39 40 41 42 43 44 44 45
18 18 18 18 19 19 19 20 20 20 21 21 22 22 23 24 25 26 26 27 28 29 30 31 32 33 34 35 36 37 38 39 39 40 41 42 43 44 45 46 47 48 49
19 19 19 20 20 21 21 21 22 23 23 23 24 24 25 26 27 28 29 30 31 32 33 34 35 37 38 38 39 40 41 41 42 43 44 45 46 46 47 48 49 50 51
21 21 21 22 22 23 23 24 24 25 25 25 26 27 28 29 30 31 32 33 34 35 36 37 38 40 40 41 42 42 43 43 44 45 46 46 47 48 49 50 50 51 52
22 23 24 24 25 25 26 27 27 28 28 29 29 30 31 32 33 35 36 37 38 39 39 40 41 42 42 43 43 44 45 46 46 47 48 49 50 50 51 51 51 52 52
24 25 25 26 27 28 28 29 30 31 32 32 33 34 35 35 37 38 39 40 41 42 42 43 43 44 44 44 45 46 47 48 49 50 50 51 51 52 52 52 52 52 51
26 27 28 28 29 30 31 32 33 34 35 36 37 37 38 39 40 41 42 42 43 44 44 44 45 45 46 47 48 49 50 50 51 52 52 53 53 53 53 52 52 52 51
28 29 30 31 31 32 33 34 35 36 37 38 39 41 42 42 42 43 43 44 44 45 46 47 48 49 50 50 51 51 52 52 53 53 54 54 54 54 53 53 53 53 53
31 31 32 33 34 35 35 36 37 38 39 40 42 43 43 43 44 44 45 46 46 48 49 50 51 52 53 53 53 53 53 54 54 55 55 55 55 55 54 54 54 54 54
33 34 35 35 36 37 38 39 39 40 42 43 43 44 44 45 46 47 48 48 49 50 51 52 53 54 55 55 55 55 55 56 56 56 56 56 56 55 55 55 56 55 55
36 36 37 38 39 40 40 41 43 43 44 45 46 46 47 48 48 49 50 51 51 52 53 54 55 56 56 56 56 56 56 56 56 56 56 56 56 56 56 56 56 55 55
38 39 40 40 41 42 43 44 45 46 47 47 48 49 49 50 50 51 52 52 53 54 55 56 57 57 57 57 57 57 57 57 57 56 56 56 56 56 56 55 55 55 55
40 41 42 43 44 45 45 46 47 48 48 49 49 49 50 51 51 52 53 54 55 55 56 57 57 57 58 58 57 57 57 57 57 56 56 56 56 56 56 55 55 54 52
43 44 44 45 46 46 47 47 48 48 49 49 50 50 51 52 53 54 55 55 56 57 57 58 58 58 58 58 57 57 57 57 56 56 56 56 55 55 55 54 52 51 49
45 45 46 47 47 47 48 48 49 49 49 50 51 52 53 53 54 55 55 56 57 57 58 59 59 59 58 57 57 56 56 56 55 55 55 54 54 53 52 51 49 47 45
46 47 47 47 48 48 49 49 49 50 51 52 52 53 53 54 55 56 57 57 58 58 59 60 60 58 57 56 56 56 55 55 54 54 53 52 52 51 50 48 46 45 43
47 48 48 49 49 50 50 51 52 52 52 53 54 55 55 56 57 57 57 58 59 59 59 59 58 57 56 55 55 54 54 54 53 52 52 51 50 49 48 47 45 43 42

GEFSGL_500_meanwind_162.txt.gz
Wind_Speed
9 9 9 9 9 9 9 9 9 9 9 9 9 9 8 8 8 8 7 7 7 7 7 7 7 7 6 7 7 8 8 8 9 9 10 11 12 12 13 14 15 16 17
9 10 10 10 10 10 10 10 10 10 10 10 9 9 9 9 9 9 8 9 9 9 9 9 8 8 8 8 9 9 10 11 11 12 13 14 14 15 16 17 18 18 19
10 11 11 11 11 11 11 10 10 10 10 10 10 10 10 10 9 9 10 10 11 11 11 10 10 10 10 10 11 12 13 13 14 15 15 16 17 18 19 20 21 22 22
11 11 12 12 11 11 11 11 11 11 11 11 11 10 10 10 10 11 11 12 13 13 13 12 12 12 13 13 14 14 15 16 17 18 18 19 19 21 21 22 22 24 25
12 12 12 12 12 12 12 12 12 12 12 12 12 12 12 12 12 12 13 14 14 14 15 15 15 15 15 16 16 17 18 19 20 20 21 22 23 23 24 25 25 26 27
13 13 13 13 13 13 13 13 13 13 13 13 14 13 14 14 14 15 15 16 16 16 16 17 17 18 18 19 20 20 21 22 23 23 24 25 26 27 28 28 29 30 31
14 14 14 14 14 14 14 14 14 15 14 14 15 15 15 16 17 17 18 18 18 18 18 19 19 20 21 22 23 24 24 25 26 27 27 28 29 30 30 31 32 33 34
14 15 14 14 15 15 15 16 16 16 16 16 16 17 17 18 19 19 19 19 20 20 20 21 22 22 23 24 25 26 26 27 28 29 30 31 32 33 33 34 35 36 37
16 16 16 16 16 17 17 17 18 18 18 18 18 19 19 20 21 21 21 22 22 22 23 24 24 25 26 26 27 28 29 30 31 32 33 34 35 36 37 38 39 40 41
17 17 18 18 18 18 18 19 19 19 19 19 20 20 21 22 23 23 24 24 25 25 26 27 28 28 29 30 31 32 33 33 34 35 37 37 38 39 40 41 43 44 44
18 18 19 19 19 19 20 20 20 20 20 21 21 22 23 23 24 25 26 27 28 29 29 30 31 31 32 33 34 35 36 37 38 39 40 41 41 42 43 45 45 46 46
19 19 20 21 21 21 22 22 22 22 23 23 23 24 25 26 27 28 29 30 30 31 32 33 33 34 35 36 38 39 39 40 41 42 43 43 44 45 46 47 47 48 48
20 21 21 22 23 23 23 24 24 25 25 26 26 27 28 29 29 30 31 32 33 34 35 36 37 38 39 40 41 42 43 43 44 44 45 45 46 47 48 49 50 50 51
21 22 23 24 25 25 26 26 26 27 27 28 29 30 31 31 32 33 34 35 36 37 38 39 40 41 42 42 43 44 44 45 46 47 47 48 49 50 51 52 52 52 52
24 24 25 26 26 27 28 28 29 29 30 31 31 32 33 34 35 36 37 38 39 40 41 41 42 43 43 44 45 46 46 47 48 49 50 51 52 52 53 54 54 55 54
26 27 27 28 29 29 30 30 31 32 32 33 34 35 36 37 38 39 40 40 41 42 42 43 44 45 46 46 47 48 49 50 51 52 53 54 54 55 55 56 57 57 56
28 29 30 30 31 31 32 32 33 34 35 36 36 37 38 39 40 41 42 43 43 43 44 45 46 47 48 48 49 50 51 52 53 55 55 55 56 56 57 58 58 58 58
30 30 31 32 32 33 33 34 35 36 36 37 38 39 40 41 42 43 44 45 45 46 47 47 48 49 49 50 51 51 53 54 55 56 56 57 58 58 59 59 59 58 58
31 31 32 32 33 34 35 35 36 37 38 39 40 41 43 44 45 45 46 47 47 48 49 49 50 51 52 52 53 54 55 56 57 57 58 59 59 59 59 59 59 59 59
32 33 33 34 34 35 37 38 39 40 41 42 43 43 45 45 46 47 48 48 49 49 50 51 52 53 54 54 55 56 56 57 57 59 60 60 60 60 60 60 60 60 60
34 35 35 36 37 38 39 40 41 42 43 44 44 45 45 46 47 48 48 49 49 50 51 52 53 54 55 55 56 57 58 58 59 60 60 60 60 61 60 60 60 59 59
36 36 37 38 39 40 41 42 43 44 44 45 45 45 46 47 47 48 49 49 50 51 52 53 54 55 55 57 58 59 59 60 60 61 61 60 61 61 60 60 59 58 57
38 38 39 40 41 42 43 44 44 45 46 46 47 47 47 48 48 49 49 50 51 52 54 54 55 55 56 58 59 60 60 60 60 60 60 60 60 59 58 57 56 56 55
40 41 42 43 44 44 45 45 46 46 47 48 48 49 49 49 50 50 51 52 53 54 55 55 56 57 58 59 60 60 60 60 60 59 59 58 58 57 56 55 54 53 52
42 43 44 45 46 46 47 47 47 48 49 49 50 50 51 51 52 52 53 54 55 55 55 56 57 58 58 59 59 59 58 58 58 57 56 56 55 54 53 52 51 50 49
44 45 46 46 46 47 47 48 48 49 50 51 52 52 53 53 54 54 54 55 55 55 55 56 56 57 58 57 57 56 55 55 54 53 53 53 52 51 51 50 49 48 47

GEFSGL_500_meanwind_168.txt.gz
Wind_Speed
12 11 10 10 10 9 9 9 9 8 8 8 8 8 8 8 8 8 7 7 7 7 7 7 7 7 7 7 7 8 8 8 9 10 11 12 13 14 14 15 15 16 17
10 10 10 10 9 10 9 10 10 10 10 9 9 9 9 9 9 9 9 8 8 8 8 8 8 8 8 8 9 9 10 10 11 12 13 14 15 15 16 17 17 17 17
10 11 11 11 10 10 10 10 10 11 11 11 10 10 10 9 9 9 9 9 9 10 10 10 10 10 10 10 11 11 12 12 13 14 14 15 16 16 17 18 18 19 20
11 11 11 11 11 11 11 11 11 12 12 12 12 12 12 11 11 11 10 10 11 11 12 12 12 12 12 13 13 14 14 15 15 16 17 17 18 19 20 20 20 21 22
12 12 13 12 12 13 13 13 13 13 13 13 13 13 13 13 13 12 12 12 12 13 13 14 14 14 14 15 16 16 17 18 18 19 19 20 20 21 22 22 23 24 24
14 14 13 13 13 13 13 14 14 14 14 14 14 14 14 14 13 13 14 14 14 15 15 16 16 16 17 18 18 19 20 20 21 22 22 22 23 24 25 25 26 27 27
14 14 14 14 13 14 14 15 15 15 15 15 15 15 15 15 15 15 15 15 16 16 17 18 18 19 20 20 21 21 22 23 24 24 25 25 26 27 28 28 29 30 31
15 15 15 15 15 15 15 16 16 16 16 16 16 16 16 16 16 16 17 17 18 18 19 20 20 21 22 23 23 24 24 25 26 27 27 28 28 29 30 31 32 33 34
16 16 16 16 16 16 17 17 17 17 17 17 16 17 17 18 18 19 19 20 20 21 22 22 23 24 25 26 26 27 27 28 28 29 30 31 32 33 34 35 35 36 37
17 17 17 17 18 18 18 18 18 18 17 17 17 18 19 20 20 21 22 22 23 24 25 26 27 28 28 29 29 30 30 30 31 32 33 34 35 36 37 38 39 40 40
18 18 18 18 18 19 20 19 19 19 19 19 19 20 21 21 22 23 24 25 25 26 27 28 29 30 31 31 32 33 33 34 35 36 36 37 38 39 39 40 41 42 43
17 18 18 19 20 20 21 21 20 20 21 21 22 22 23 23 24 25 26 27 28 29 29 30 31 32 32 33 34 35 36 37 38 39 39 39 40 41 42 42 43 44 45
18 19 19 20 20 20 20 20 21 22 23 23 23 24 24 25 26 28 28 29 30 31 32 33 34 34 35 36 37 38 39 40 41 41 42 42 43 43 44 45 46 47 48
19 20 21 21 21 21 21 22 23 23 24 25 25 26 27 28 29 30 31 31 32 33 34 35 36 37 38 39 40 41 41 42 43 44 44 45 46 46 47 48 49 50 51
21 21 22 22 22 22 23 24 24 25 26 27 28 29 29 30 31 32 33 34 34 35 36 37 38 39 40 41 42 42 43 44 45 46 47 48 48 49 50 51 52 52 53
22 23 23 24 24 25 25 26 26 27 28 29 29 30 31 31 32 33 34 36 37 38 38 39 40 41 42 43 43 44 46 47 48 49 49 50 51 52 52 53 54 54 55
24 25 25 25 26 26 27 28 28 29 29 30 31 31 32 33 34 36 37 38 39 39 40 41 42 43 44 45 46 47 48 49 50 51 52 52 53 54 54 55 55 56 57
26 27 27 27 28 28 29 29 30 30 31 31 32 33 34 36 36 37 38 39 40 41 41 42 43 44 45 46 48 49 50 51 51 52 53 53 54 55 55 56 56 57 58
28 28 28 29 29 30 30 30 31 31 32 33 34 35 36 37 38 39 39 40 41 41 42 43 44 45 47 48 49 50 51 52 52 53 53 54 54 55 56 57 58 58 59
29 29 30 30 30 31 31 31 32 33 34 35 36 37 38 38 39 40 40 41 42 43 44 45 46 47 48 49 50 50 51 52 52 53 54 55 56 57 58 58 59 59 60
31 31 31 32 32 32 33 33 34 35 36 36 37 38 39 39 40 41 42 43 44 45 46 47 47 48 49 50 50 51 51 52 53 54 55 56 57 58 58 59 59 60 60
31 32 32 33 33 34 34 35 36 37 38 38 39 40 41 42 42 43 44 45 46 47 47 48 48 49 50 50 51 52 53 54 55 55 56 57 58 58 58 59 59 60 60
32 33 34 35 36 36 37 38 39 39 40 41 41 42 43 44 44 45 45 46 47 48 48 49 50 51 52 53 53 54 55 55 56 56 57 57 58 57 57 58 58 58 58
34 35 36 36 37 38 39 40 40 41 42 42 43 43 44 45 45 46 47 48 48 49 50 50 51 52 53 54 54 55 56 56 56 57 57 57 57 57 57 57 56 55 55
35 36 37 37 38 39 40 41 42 42 43 44 44 45 45 46 47 48 48 49 49 50 51 52 53 54 55 55 55 56 56 57 57 57 57 57 56 55 55 54 53 52 52
37 37 38 39 40 40 41 42 43 43 44 44 45 46 47 48 49 49 50 50 51 52 52 53 54 55 55 55 56 56 56 56 55 55 55 54 53 52 52 51 50 50 50

GEFSGL_500_meanwind_174.txt.gz
Wind_Speed
8 8 9 8 8 8 8 8 8 8 8 8 8 8 8 8 8 8 8 8 7 7 6 6 7 8 7 8 8 9 9 10 10 11 11 11 12 13 13 13 14 15 16
10 10 10 9 9 9 9 10 10 9 9 9 10 9 10 10 10 9 9 9 8 8 8 8 8 9 9 9 10 10 10 11 11 12 13 13 14 14 15 15 16 17 17
9 10 10 10 10 11 11 11 11 11 11 12 12 12 12 12 11 11 11 10 10 10 10 10 10 10 11 11 12 12 12 12 13 13 14 15 15 16 17 17 18 19 19
10 10 10 11 12 12 12 13 13 13 13 14 14 14 13 13 13 13 13 12 12 12 12 12 12 13 13 13 13 14 14 15 15 16 16 17 18 18 19 20 20 20 21
10 11 11 12 12 12 13 13 14 14 15 15 15 15 15 15 15 15 15 15 14 14 14 14 14 15 15 15 15 16 17 17 18 19 19 20 20 21 21 22 22 23 23
12 12 12 12 13 13 13 13 14 15 15 16 15 16 16 16 17 17 17 17 16 16 16 16 16 17 17 17 18 19 19 20 21 21 22 22 23 23 24 25 25 25 26
13 13 13 13 14 14 14 15 15 16 16 16 17 17 17 17 18 18 18 18 18 17 17 18 18 19 19 20 20 21 22 23 24 24 24 25 25 26 27 28 28 29 29
14 14 14 14 15 15 16 16 16 16 16 17 17 18 18 18 18 19 19 19 19 19 19 20 21 21 22 22 23 24 25 26 27 27 27 28 28 29 30 31 32 33 34
16 16 16 16 16 17 17 16 16 17 17 18 18 18 18 18 19 19 20 20 21 21 22 23 23 24 24 25 26 27 28 29 29 30 31 32 32 33 34 35 36 36 36
17 17 18 18 17 17 17 17 18 18 19 19 19 19 19 19 20 20 21 22 23 23 24 25 26 27 27 28 29 29 30 31 32 32 33 34 35 36 37 39 39 39 39
17 18 18 18 18 18 18 19 19 20 20 19 19 20 20 21 22 22 23 23 24 25 25 26 27 28 29 30 30 31 32 33 34 34 35 36 38 39 40 40 41 42 42
17 17 18 18 19 19 20 20 20 20 20 21 21 21 22 23 23 23 24 25 26 26 27 28 29 30 30 31 32 33 34 35 36 37 37 38 40 40 41 42 42 43 44
18 18 19 19 20 20 20 21 21 21 22 22 23 24 24 24 25 26 27 27 27 28 29 30 31 32 33 33 34 35 36 37 38 39 40 41 42 42 43 44 44 44 45
19 20 20 20 21 21 21 22 22 22 23 24 25 25 26 27 28 29 29 29 30 30 31 32 33 34 35 36 37 38 39 40 41 41 42 43 44 44 45 45 46 46 47
21 21 22 22 22 22 23 23 23 24 24 25 26 27 27 28 29 29 30 30 31 32 33 34 35 36 37 38 39 40 41 41 42 43 44 45 46 46 46 47 48 49 49
22 23 23 24 24 24 24 25 25 26 26 27 27 28 28 29 30 31 31 32 33 34 35 36 36 37 38 39 40 41 42 43 44 45 46 46 47 48 48 49 50 51 51
23 24 24 25 25 26 26 26 27 27 28 28 29 30 30 31 32 33 34 34 35 36 37 37 38 39 40 40 41 43 43 44 45 46 47 47 48 49 50 50 51 52 53
24 25 25 26 27 27 28 28 29 29 29 30 30 31 32 32 33 34 35 36 36 37 38 39 40 41 41 42 43 43 44 45 46 47 47 48 49 49 50 51 53 54 55
26 26 27 27 28 29 29 29 30 30 30 31 32 32 33 34 35 36 36 37 38 39 40 41 41 42 42 43 44 45 46 46 47 48 49 49 50 51 52 52 54 55 56
28 28 29 29 30 30 30 30 31 31 32 32 33 33 34 35 36 36 37 38 39 40 41 42 42 43 44 45 45 46 47 47 48 49 49 51 52 53 53 54 55 56 56
29 30 30 31 31 31 31 31 32 33 34 34 34 35 35 36 37 38 39 40 41 42 42 43 44 44 45 46 47 47 48 49 50 50 51 52 53 54 54 55 56 57 57
30 31 31 31 31 32 33 34 34 34 35 35 36 37 37 38 39 40 41 42 42 43 44 45 45 46 47 48 48 49 50 50 51 52 53 54 54 55 55 56 57 58 58
31 31 32 32 33 34 35 34 35 36 36 37 38 39 40 40 41 41 42 42 43 44 45 46 47 47 48 49 50 51 51 52 53 54 54 55 55 56 56 57 57 58 57
32 33 33 34 35 36 36 36 37 38 39 39 40 41 41 41 42 42 43 43 44 46 47 47 48 49 50 50 51 52 53 54 55 55 56 56 57 57 57 57 56 56 55
34 35 35 36 36 36 37 38 39 40 40 40 41 41 42 42 43 43 44 45 46 47 47 49 50 50 50 51 52 53 54 55 55 56 56 56 56 56 55 55 55 54 53
35 36 37 37 38 38 39 39 40 40 41 41 42 42 43 43 44 44 45 46 47 48 49 50 51 51 51 51 52 53 54 54 54 55 55 55 53 53 53 53 52 51 50

GEFSGL_500_meanwind_180.txt.gz
Wind_Speed
10 10 9 9 9 9 8 7 7 7 7 7 8 8 8 8 7 7 7 8 9 9 9 9 9 9 9 10 10 10 11 11 11 11 11 11 12 12 13 13 14 14 15
11 11 11 10 10 9 9 9 8 8 8 9 9 9 9 9 9 10 10 10 11 11 11 11 11 11 11 12 12 13 13 13 13 13 14 14 14 15 15 16 16 16 17
12 12 12 11 10 10 9 9 9 10 10 11 11 11 11 11 11 11 12 12 12 13 13 12 12 13 13 14 14 14 15 15 16 16 16 16 17 17 18 18 18 19 19
12 12 12 12 11 11 11 11 11 11 12 12 12 12 13 13 14 14 14 14 14 14 14 14 15 15 15 15 16 16 17 17 18 18 18 19 19 20 20 20 21 21 21
12 12 12 12 12 11 12 12 12 13 13 13 14 14 14 14 15 15 15 15 15 15 15 16 16 16 16 17 17 18 18 19 20 20 21 21 22 22 22 23 23 24 24
11 12 13 13 13 12 12 13 14 14 14 15 14 14 15 15 16 16 16 16 16 16 16 17 17 17 18 19 19 20 20 21 21 22 23 24 24 25 25 26 26 27 27
11 12 13 14 14 14 14 14 15 15 15 15 16 16 16 16 17 17 18 18 18 19 19 19 19 20 20 21 21 22 22 23 23 24 25 25 26 27 27 28 29 29 30
12 13 13 14 15 15 15 15 15 16 16 17 17 18 18 18 19 19 19 19 20 20 21 21 21 22 22 23 23 23 24 24 25 26 27 27 28 29 29 30 31 31 32
14 14 14 15 15 16 16 16 16 17 17 18 18 18 19 19 20 20 20 20 21 21 22 22 22 23 24 24 25 25 26 27 28 28 29 30 31 32 32 33 33 34 34
14 15 15 15 15 15 16 17 18 18 18 18 19 19 20 20 21 21 22 21 21 22 23 23 23 24 25 26 27 27 28 29 30 30 31 32 33 34 34 35 36 37 37
14 15 15 16 16 17 17 18 19 19 19 20 21 21 21 21 21 22 22 23 23 24 24 25 25 26 28 28 28 29 30 31 31 32 33 34 35 36 37 38 39 40 40
15 15 16 17 18 18 19 19 19 19 20 21 21 21 22 22 22 23 24 24 24 25 26 26 27 29 30 30 30 31 32 33 33 34 35 36 37 38 40 41 42 43 44
15 16 17 18 19 20 20 20 20 20 21 21 22 22 22 23 24 24 25 25 26 26 27 28 29 30 31 32 32 33 34 34 35 36 37 38 39 41 42 43 44 46 46
17 17 18 19 20 20 20 21 21 21 22 22 23 23 24 25 25 26 27 27 28 28 29 30 31 32 33 34 34 35 35 36 37 38 39 40 41 42 44 45 46 47 48
19 19 19 20 21 21 21 21 22 22 23 23 24 25 25 26 26 27 28 29 30 30 30 31 32 33 34 35 36 37 38 38 39 40 41 41 42 43 45 46 47 48 48
20 20 20 21 21 22 22 23 23 24 24 24 25 25 26 27 28 29 29 30 31 31 32 32 33 34 35 36 37 37 38 39 40 41 42 43 44 45 46 47 47 48 49
20 21 22 22 22 23 23 24 25 25 25 26 27 27 28 29 30 30 31 31 32 32 33 33 35 35 36 37 38 39 40 41 42 42 43 44 45 46 47 47 48 49 50
22 22 23 24 24 25 25 25 26 26 27 27 28 29 29 30 31 31 32 32 33 33 34 35 36 37 38 39 40 41 41 42 43 44 45 46 47 48 48 48 49 50 51
23 24 24 25 25 26 26 27 27 27 28 28 29 30 30 31 31 32 32 33 34 35 36 36 37 38 39 40 41 42 42 44 44 45 46 47 49 49 49 50 51 52 53
25 26 26 27 27 27 27 27 28 28 29 30 31 31 31 32 32 33 34 35 35 36 37 38 39 40 40 41 42 43 44 45 46 46 47 48 50 50 51 51 52 54 54
27 27 28 28 28 28 28 29 29 29 30 30 31 32 32 33 33 34 35 36 37 38 39 40 41 41 42 43 44 45 46 46 47 48 48 49 50 51 52 53 54 55 55
29 29 29 28 29 29 29 30 30 30 31 31 32 33 34 34 35 36 37 38 39 40 41 41 42 43 43 44 45 46 47 47 48 49 49 50 51 52 53 53 54 55 55
29 30 30 30 30 31 31 31 31 32 32 33 33 34 35 36 37 38 39 40 41 42 42 43 44 44 45 46 46 46 47 48 49 50 51 51 52 53 53 54 54 54 54
31 31 31 31 32 32 32 33 34 34 34 35 35 36 37 38 39 40 41 41 42 43 44 44 45 45 46 47 48 48 49 50 51 51 51 52 52 53 53 53 53 53 53
32 32 32 33 33 34 34 35 35 36 36 36 37 37 38 39 40 41 42 43 44 44 45 45 46 46 47 48 48 49 50 50 51 51 51 51 52 52 52 52 52 52 52
33 33 34 34 35 35 36 36 37 37 37 38 39 39 40 41 41 42 43 44 44 45 45 45 46 47 48 48 49 49 49 49 50 50 51 51 51 51 51 51 51 51 50